station,date_time,water_elev
364634089180501,05/01/2011 02:01,300.79
364634089180501,05/01/2011 02:02,300.8
364634089180501,05/01/2011 02:03,300.8
364634089180501,05/01/2011 02:04,300.8
364634089180501,05/01/2011 02:05,300.8
364634089180501,05/01/2011 02:06,300.81
364634089180501,05/01/2011 02:07,300.81
364634089180501,05/01/2011 02:08,300.81
364634089180501,05/01/2011 02:09,300.8
364634089180501,05/01/2011 02:10,300.8
364634089180501,05/01/2011 02:11,300.81
364634089180501,05/01/2011 02:12,300.8
364634089180501,05/01/2011 02:13,300.81
364634089180501,05/01/2011 02:14,300.81
364634089180501,05/01/2011 02:15,300.82
364634089180501,05/01/2011 02:16,300.81
364634089180501,05/01/2011 02:17,300.8
364634089180501,05/01/2011 02:18,300.81
364634089180501,05/01/2011 02:19,300.81
364634089180501,05/01/2011 02:20,300.82
364634089180501,05/01/2011 02:21,300.82
364634089180501,05/01/2011 02:22,300.82
364634089180501,05/01/2011 02:23,300.82
364634089180501,05/01/2011 02:24,300.82
364634089180501,05/01/2011 02:25,300.82
364634089180501,05/01/2011 02:26,300.82
364634089180501,05/01/2011 02:27,300.83
364634089180501,05/01/2011 02:28,300.84
364634089180501,05/01/2011 02:29,300.83
364634089180501,05/01/2011 02:30,300.84
364634089180501,05/01/2011 02:31,300.84
364634089180501,05/01/2011 02:32,300.84
364634089180501,05/01/2011 02:33,300.84
364634089180501,05/01/2011 02:34,300.83
364634089180501,05/01/2011 02:35,300.83
364634089180501,05/01/2011 02:36,300.84
364634089180501,05/01/2011 02:37,300.85
364634089180501,05/01/2011 02:38,300.84
364634089180501,05/01/2011 02:39,300.85
364634089180501,05/01/2011 02:40,300.86
364634089180501,05/01/2011 02:41,300.86
364634089180501,05/01/2011 02:42,300.86
364634089180501,05/01/2011 02:43,300.86
364634089180501,05/01/2011 02:44,300.86
364634089180501,05/01/2011 02:45,300.86
364634089180501,05/01/2011 02:46,300.87
364634089180501,05/01/2011 02:47,300.87
364634089180501,05/01/2011 02:48,300.87
364634089180501,05/01/2011 02:49,300.87
364634089180501,05/01/2011 02:50,300.88
364634089180501,05/01/2011 02:51,300.88
364634089180501,05/01/2011 02:52,300.87
364634089180501,05/01/2011 02:53,300.88
364634089180501,05/01/2011 02:54,300.87
364634089180501,05/01/2011 02:55,300.88
364634089180501,05/01/2011 02:56,300.89
364634089180501,05/01/2011 02:57,300.88
364634089180501,05/01/2011 02:58,300.89
364634089180501,05/01/2011 02:59,300.89
364634089180501,05/01/2011 03:00,300.89
364634089180501,05/01/2011 03:01,300.89
364634089180501,05/01/2011 03:02,300.9
364634089180501,05/01/2011 03:03,300.89
364634089180501,05/01/2011 03:04,300.9
364634089180501,05/01/2011 03:05,300.9
364634089180501,05/01/2011 03:06,300.9
364634089180501,05/01/2011 03:07,300.9
364634089180501,05/01/2011 03:08,300.91
364634089180501,05/01/2011 03:09,300.91
364634089180501,05/01/2011 03:10,300.92
364634089180501,05/01/2011 03:11,300.91
364634089180501,05/01/2011 03:12,300.91
364634089180501,05/01/2011 03:13,300.91
364634089180501,05/01/2011 03:14,300.92
364634089180501,05/01/2011 03:15,300.92
364634089180501,05/01/2011 03:16,300.92
364634089180501,05/01/2011 03:17,300.93
364634089180501,05/01/2011 03:18,300.93
364634089180501,05/01/2011 03:19,300.93
364634089180501,05/01/2011 03:20,300.92
364634089180501,05/01/2011 03:21,300.92
364634089180501,05/01/2011 03:22,300.92
364634089180501,05/01/2011 03:23,300.93
364634089180501,05/01/2011 03:24,300.92
364634089180501,05/01/2011 03:25,300.93
364634089180501,05/01/2011 03:26,300.94
364634089180501,05/01/2011 03:27,300.94
364634089180501,05/01/2011 03:28,300.94
364634089180501,05/01/2011 03:29,300.94
364634089180501,05/01/2011 03:30,300.94
364634089180501,05/01/2011 03:31,300.94
364634089180501,05/01/2011 03:32,300.94
364634089180501,05/01/2011 03:33,300.95
364634089180501,05/01/2011 03:34,300.95
364634089180501,05/01/2011 03:35,300.96
364634089180501,05/01/2011 03:36,300.95
364634089180501,05/01/2011 03:37,300.95
364634089180501,05/01/2011 03:38,300.96
364634089180501,05/01/2011 03:39,300.96
364634089180501,05/01/2011 03:40,300.96
364634089180501,05/01/2011 03:41,300.96
364634089180501,05/01/2011 03:42,300.95
364634089180501,05/01/2011 03:43,300.95
364634089180501,05/01/2011 03:44,300.95
364634089180501,05/01/2011 03:45,300.96
364634089180501,05/01/2011 03:46,300.95
364634089180501,05/01/2011 03:47,300.96
364634089180501,05/01/2011 03:48,300.95
364634089180501,05/01/2011 03:49,300.95
364634089180501,05/01/2011 03:50,300.96
364634089180501,05/01/2011 03:51,300.95
364634089180501,05/01/2011 03:52,300.95
364634089180501,05/01/2011 03:53,300.96
364634089180501,05/01/2011 03:54,300.96
364634089180501,05/01/2011 03:55,300.96
364634089180501,05/01/2011 03:56,300.95
364634089180501,05/01/2011 03:57,300.95
364634089180501,05/01/2011 03:58,300.95
364634089180501,05/01/2011 03:59,300.96
364634089180501,05/01/2011 04:00,300.95
364634089180501,05/01/2011 04:01,300.96
364634089180501,05/01/2011 04:02,300.96
364634089180501,05/01/2011 04:03,300.94
364634089180501,05/01/2011 04:04,300.94
364634089180501,05/01/2011 04:05,300.94
364634089180501,05/01/2011 04:06,300.95
364634089180501,05/01/2011 04:07,300.96
364634089180501,05/01/2011 04:08,300.95
364634089180501,05/01/2011 04:09,300.95
364634089180501,05/01/2011 04:10,300.95
364634089180501,05/01/2011 04:11,300.95
364634089180501,05/01/2011 04:12,300.97
364634089180501,05/01/2011 04:13,300.95
364634089180501,05/01/2011 04:14,300.95
364634089180501,05/01/2011 04:15,300.96
364634089180501,05/01/2011 04:16,300.96
364634089180501,05/01/2011 04:17,300.95
364634089180501,05/01/2011 04:18,300.96
364634089180501,05/01/2011 04:19,300.95
364634089180501,05/01/2011 04:20,300.95
364634089180501,05/01/2011 04:21,300.96
364634089180501,05/01/2011 04:22,300.96
364634089180501,05/01/2011 04:23,300.95
364634089180501,05/01/2011 04:24,300.97
364634089180501,05/01/2011 04:25,300.95
364634089180501,05/01/2011 04:26,300.95
364634089180501,05/01/2011 04:27,300.95
364634089180501,05/01/2011 04:28,300.97
364634089180501,05/01/2011 04:29,300.96
364634089180501,05/01/2011 04:30,300.95
364634089180501,05/01/2011 04:31,300.96
364634089180501,05/01/2011 04:32,300.96
364634089180501,05/01/2011 04:33,300.95
364634089180501,05/01/2011 04:34,300.95
364634089180501,05/01/2011 04:35,300.95
364634089180501,05/01/2011 04:36,300.95
364634089180501,05/01/2011 04:37,300.95
364634089180501,05/01/2011 04:38,300.96
364634089180501,05/01/2011 04:39,300.95
364634089180501,05/01/2011 04:40,300.96
364634089180501,05/01/2011 04:41,300.96
364634089180501,05/01/2011 04:42,300.95
364634089180501,05/01/2011 04:43,300.97
364634089180501,05/01/2011 04:44,300.97
364634089180501,05/01/2011 04:45,300.98
364634089180501,05/01/2011 04:46,300.98
364634089180501,05/01/2011 04:47,300.98
364634089180501,05/01/2011 04:48,300.98
364634089180501,05/01/2011 04:49,300.98
364634089180501,05/01/2011 04:50,300.97
364634089180501,05/01/2011 04:51,300.98
364634089180501,05/01/2011 04:52,300.98
364634089180501,05/01/2011 04:53,300.97
364634089180501,05/01/2011 04:54,300.98
364634089180501,05/01/2011 04:55,300.98
364634089180501,05/01/2011 04:56,300.98
364634089180501,05/01/2011 04:57,300.98
364634089180501,05/01/2011 04:58,300.99
364634089180501,05/01/2011 04:59,300.99
364634089180501,05/01/2011 05:00,300.99
364634089180501,05/01/2011 05:01,300.99
364634089180501,05/01/2011 05:02,300.98
364634089180501,05/01/2011 05:03,300.98
364634089180501,05/01/2011 05:04,300.98
364634089180501,05/01/2011 05:05,300.97
364634089180501,05/01/2011 05:06,300.97
364634089180501,05/01/2011 05:07,300.97
364634089180501,05/01/2011 05:08,300.98
364634089180501,05/01/2011 05:09,300.99
364634089180501,05/01/2011 05:10,300.99
364634089180501,05/01/2011 05:11,301
364634089180501,05/01/2011 05:12,300.98
364634089180501,05/01/2011 05:13,300.98
364634089180501,05/01/2011 05:14,300.94
364634089180501,05/01/2011 05:15,300.95
364634089180501,05/01/2011 05:16,300.95
364634089180501,05/01/2011 05:17,300.96
364634089180501,05/01/2011 05:18,300.98
364634089180501,05/01/2011 05:19,300.96
364634089180501,05/01/2011 05:20,300.97
364634089180501,05/01/2011 05:21,300.97
364634089180501,05/01/2011 05:22,300.97
364634089180501,05/01/2011 05:23,300.98
364634089180501,05/01/2011 05:24,301
364634089180501,05/01/2011 05:25,301
364634089180501,05/01/2011 05:26,301
364634089180501,05/01/2011 05:27,301
364634089180501,05/01/2011 05:28,301
364634089180501,05/01/2011 05:29,301
364634089180501,05/01/2011 05:30,301
364634089180501,05/01/2011 05:31,300.99
364634089180501,05/01/2011 05:32,300.99
364634089180501,05/01/2011 05:33,300.99
364634089180501,05/01/2011 05:34,300.99
364634089180501,05/01/2011 05:35,300.99
364634089180501,05/01/2011 05:36,300.99
364634089180501,05/01/2011 05:37,300.99
364634089180501,05/01/2011 05:38,301
364634089180501,05/01/2011 05:39,301
364634089180501,05/01/2011 05:40,301
364634089180501,05/01/2011 05:41,301
364634089180501,05/01/2011 05:42,301
364634089180501,05/01/2011 05:43,301
364634089180501,05/01/2011 05:44,301
364634089180501,05/01/2011 05:45,301
364634089180501,05/01/2011 05:46,301.01
364634089180501,05/01/2011 05:47,301.01
364634089180501,05/01/2011 05:48,301.01
364634089180501,05/01/2011 05:49,301.01
364634089180501,05/01/2011 05:50,301
364634089180501,05/01/2011 05:51,301.01
364634089180501,05/01/2011 05:52,301.01
364634089180501,05/01/2011 05:53,301.01
364634089180501,05/01/2011 05:54,301
364634089180501,05/01/2011 05:55,301.01
364634089180501,05/01/2011 05:56,301.01
364634089180501,05/01/2011 05:57,301
364634089180501,05/01/2011 05:58,301
364634089180501,05/01/2011 05:59,301.01
364634089180501,05/01/2011 06:00,301.01
364634089180501,05/01/2011 06:01,301.01
364634089180501,05/01/2011 06:02,301.01
364634089180501,05/01/2011 06:03,301
364634089180501,05/01/2011 06:04,301.01
364634089180501,05/01/2011 06:05,301.01
364634089180501,05/01/2011 06:06,301.01
364634089180501,05/01/2011 06:07,301
364634089180501,05/01/2011 06:08,301.01
364634089180501,05/01/2011 06:09,301.02
364634089180501,05/01/2011 06:10,301
364634089180501,05/01/2011 06:11,301.01
364634089180501,05/01/2011 06:12,301.01
364634089180501,05/01/2011 06:13,301.01
364634089180501,05/01/2011 06:14,301.02
364634089180501,05/01/2011 06:15,301.01
364634089180501,05/01/2011 06:16,301.01
364634089180501,05/01/2011 06:17,301
364634089180501,05/01/2011 06:18,301
364634089180501,05/01/2011 06:19,301.01
364634089180501,05/01/2011 06:20,301.02
364634089180501,05/01/2011 06:21,301
364634089180501,05/01/2011 06:22,301.02
364634089180501,05/01/2011 06:23,301
364634089180501,05/01/2011 06:24,301.01
364634089180501,05/01/2011 06:25,301.01
364634089180501,05/01/2011 06:26,301
364634089180501,05/01/2011 06:27,301.02
364634089180501,05/01/2011 06:28,301.02
364634089180501,05/01/2011 06:29,301.02
364634089180501,05/01/2011 06:30,301.02
364634089180501,05/01/2011 06:31,301.02
364634089180501,05/01/2011 06:32,301.02
364634089180501,05/01/2011 06:33,301.02
364634089180501,05/01/2011 06:34,301.02
364634089180501,05/01/2011 06:35,301.03
364634089180501,05/01/2011 06:36,301.01
364634089180501,05/01/2011 06:37,301.01
364634089180501,05/01/2011 06:38,301.01
364634089180501,05/01/2011 06:39,301.01
364634089180501,05/01/2011 06:40,301.01
364634089180501,05/01/2011 06:41,301.01
364634089180501,05/01/2011 06:42,301
364634089180501,05/01/2011 06:43,301.01
364634089180501,05/01/2011 06:44,301.01
364634089180501,05/01/2011 06:45,301.01
364634089180501,05/01/2011 06:46,301.01
364634089180501,05/01/2011 06:47,301.01
364634089180501,05/01/2011 06:48,301
364634089180501,05/01/2011 06:49,301
364634089180501,05/01/2011 06:50,301.01
364634089180501,05/01/2011 06:51,301.01
364634089180501,05/01/2011 06:52,301.01
364634089180501,05/01/2011 06:53,301.02
364634089180501,05/01/2011 06:54,301.02
364634089180501,05/01/2011 06:55,301.01
364634089180501,05/01/2011 06:56,301.01
364634089180501,05/01/2011 06:57,301
364634089180501,05/01/2011 06:58,301
364634089180501,05/01/2011 06:59,301
364634089180501,05/01/2011 07:00,301.01
364634089180501,05/01/2011 07:01,301.01
364634089180501,05/01/2011 07:02,301.02
364634089180501,05/01/2011 07:03,301.02
364634089180501,05/01/2011 07:04,301.02
364634089180501,05/01/2011 07:05,301.01
364634089180501,05/01/2011 07:06,301.02
364634089180501,05/01/2011 07:07,301.01
364634089180501,05/01/2011 07:08,301.01
364634089180501,05/01/2011 07:09,301.01
364634089180501,05/01/2011 07:10,301.01
364634089180501,05/01/2011 07:11,301.02
364634089180501,05/01/2011 07:12,301.02
364634089180501,05/01/2011 07:13,301.01
364634089180501,05/01/2011 07:14,301.02
364634089180501,05/01/2011 07:15,301.02
364634089180501,05/01/2011 07:16,301.01
364634089180501,05/01/2011 07:17,301.01
364634089180501,05/01/2011 07:18,301.02
364634089180501,05/01/2011 07:19,301.02
364634089180501,05/01/2011 07:20,301.02
364634089180501,05/01/2011 07:21,301.02
364634089180501,05/01/2011 07:22,301.02
364634089180501,05/01/2011 07:23,301.03
364634089180501,05/01/2011 07:24,301.03
364634089180501,05/01/2011 07:25,301.03
364634089180501,05/01/2011 07:26,301.03
364634089180501,05/01/2011 07:27,301.03
364634089180501,05/01/2011 07:28,301.03
364634089180501,05/01/2011 07:29,301.02
364634089180501,05/01/2011 07:30,301.03
364634089180501,05/01/2011 07:31,301.03
364634089180501,05/01/2011 07:32,301.03
364634089180501,05/01/2011 07:33,301.02
364634089180501,05/01/2011 07:34,301.03
364634089180501,05/01/2011 07:35,301.02
364634089180501,05/01/2011 07:36,301.02
364634089180501,05/01/2011 07:37,301.03
364634089180501,05/01/2011 07:38,301.04
364634089180501,05/01/2011 07:39,301.04
364634089180501,05/01/2011 07:40,301.03
364634089180501,05/01/2011 07:41,301.04
364634089180501,05/01/2011 07:42,301.04
364634089180501,05/01/2011 07:43,301.04
364634089180501,05/01/2011 07:44,301.04
364634089180501,05/01/2011 07:45,301.03
364634089180501,05/01/2011 07:46,301.04
364634089180501,05/01/2011 07:47,301.03
364634089180501,05/01/2011 07:48,301.03
364634089180501,05/01/2011 07:49,301.04
364634089180501,05/01/2011 07:50,301.05
364634089180501,05/01/2011 07:51,301.05
364634089180501,05/01/2011 07:52,301.04
364634089180501,05/01/2011 07:53,301.04
364634089180501,05/01/2011 07:54,301.04
364634089180501,05/01/2011 07:55,301.05
364634089180501,05/01/2011 07:56,301.04
364634089180501,05/01/2011 07:57,301.04
364634089180501,05/01/2011 07:58,301.05
364634089180501,05/01/2011 07:59,301.04
364634089180501,05/01/2011 08:00,301.04
364634089180501,05/01/2011 08:01,301.05
364634089180501,05/01/2011 08:02,301.06
364634089180501,05/01/2011 08:03,301.05
364634089180501,05/01/2011 08:04,301.06
364634089180501,05/01/2011 08:05,301.06
364634089180501,05/01/2011 08:06,301.06
364634089180501,05/01/2011 08:07,301.06
364634089180501,05/01/2011 08:08,301.06
364634089180501,05/01/2011 08:09,301.07
364634089180501,05/01/2011 08:10,301.06
364634089180501,05/01/2011 08:11,301.06
364634089180501,05/01/2011 08:12,301.06
364634089180501,05/01/2011 08:13,301.06
364634089180501,05/01/2011 08:14,301.07
364634089180501,05/01/2011 08:15,301.07
364634089180501,05/01/2011 08:16,301.06
364634089180501,05/01/2011 08:17,301.06
364634089180501,05/01/2011 08:18,301.06
364634089180501,05/01/2011 08:19,301.06
364634089180501,05/01/2011 08:20,301.06
364634089180501,05/01/2011 08:21,301.06
364634089180501,05/01/2011 08:22,301.06
364634089180501,05/01/2011 08:23,301.07
364634089180501,05/01/2011 08:24,301.06
364634089180501,05/01/2011 08:25,301.06
364634089180501,05/01/2011 08:26,301.07
364634089180501,05/01/2011 08:27,301.07
364634089180501,05/01/2011 08:28,301.06
364634089180501,05/01/2011 08:29,301.06
364634089180501,05/01/2011 08:30,301.07
364634089180501,05/01/2011 08:31,301.06
364634089180501,05/01/2011 08:32,301.06
364634089180501,05/01/2011 08:33,301.07
364634089180501,05/01/2011 08:34,301.08
364634089180501,05/01/2011 08:35,301.09
364634089180501,05/01/2011 08:36,301.09
364634089180501,05/01/2011 08:37,301.08
364634089180501,05/01/2011 08:38,301.08
364634089180501,05/01/2011 08:39,301.08
364634089180501,05/01/2011 08:40,301.08
364634089180501,05/01/2011 08:41,301.07
364634089180501,05/01/2011 08:42,301.08
364634089180501,05/01/2011 08:43,301.08
364634089180501,05/01/2011 08:44,301.08
364634089180501,05/01/2011 08:45,301.08
364634089180501,05/01/2011 08:46,301.08
364634089180501,05/01/2011 08:47,301.08
364634089180501,05/01/2011 08:48,301.08
364634089180501,05/01/2011 08:49,301.08
364634089180501,05/01/2011 08:50,301.08
364634089180501,05/01/2011 08:51,301.07
364634089180501,05/01/2011 08:52,301.08
364634089180501,05/01/2011 08:53,301.07
364634089180501,05/01/2011 08:54,301.08
364634089180501,05/01/2011 08:55,301.08
364634089180501,05/01/2011 08:56,301.08
364634089180501,05/01/2011 08:57,301.08
364634089180501,05/01/2011 08:58,301.08
364634089180501,05/01/2011 08:59,301.08
364634089180501,05/01/2011 09:00,301.08
364634089180501,05/01/2011 09:01,301.08
364634089180501,05/01/2011 09:02,301.08
364634089180501,05/01/2011 09:03,301.08
364634089180501,05/01/2011 09:04,301.08
364634089180501,05/01/2011 09:05,301.08
364634089180501,05/01/2011 09:06,301.08
364634089180501,05/01/2011 09:07,301.08
364634089180501,05/01/2011 09:08,301.08
364634089180501,05/01/2011 09:09,301.08
364634089180501,05/01/2011 09:10,301.08
364634089180501,05/01/2011 09:11,301.08
364634089180501,05/01/2011 09:12,301.07
364634089180501,05/01/2011 09:13,301.07
364634089180501,05/01/2011 09:14,301.08
364634089180501,05/01/2011 09:15,301.07
364634089180501,05/01/2011 09:16,301.07
364634089180501,05/01/2011 09:17,301.07
364634089180501,05/01/2011 09:18,301.06
364634089180501,05/01/2011 09:19,301.06
364634089180501,05/01/2011 09:20,301.06
364634089180501,05/01/2011 09:21,301.07
364634089180501,05/01/2011 09:22,301.06
364634089180501,05/01/2011 09:23,301.07
364634089180501,05/01/2011 09:24,301.07
364634089180501,05/01/2011 09:25,301.08
364634089180501,05/01/2011 09:26,301.07
364634089180501,05/01/2011 09:27,301.08
364634089180501,05/01/2011 09:28,301.08
364634089180501,05/01/2011 09:29,301.08
364634089180501,05/01/2011 09:30,301.08
364634089180501,05/01/2011 09:31,301.08
364634089180501,05/01/2011 09:32,301.08
364634089180501,05/01/2011 09:33,301.08
364634089180501,05/01/2011 09:34,301.08
364634089180501,05/01/2011 09:35,301.08
364634089180501,05/01/2011 09:36,301.08
364634089180501,05/01/2011 09:37,301.08
364634089180501,05/01/2011 09:38,301.08
364634089180501,05/01/2011 09:39,301.09
364634089180501,05/01/2011 09:40,301.08
364634089180501,05/01/2011 09:41,301.08
364634089180501,05/01/2011 09:42,301.08
364634089180501,05/01/2011 09:43,301.08
364634089180501,05/01/2011 09:44,301.08
364634089180501,05/01/2011 09:45,301.08
364634089180501,05/01/2011 09:46,301.08
364634089180501,05/01/2011 09:47,301.09
364634089180501,05/01/2011 09:48,301.09
364634089180501,05/01/2011 09:49,301.09
364634089180501,05/01/2011 09:50,301.09
364634089180501,05/01/2011 09:51,301.1
364634089180501,05/01/2011 09:52,301.09
364634089180501,05/01/2011 09:53,301.08
364634089180501,05/01/2011 09:54,301.09
364634089180501,05/01/2011 09:55,301.08
364634089180501,05/01/2011 09:56,301.09
364634089180501,05/01/2011 09:57,301.09
364634089180501,05/01/2011 09:58,301.1
364634089180501,05/01/2011 09:59,301.1
364634089180501,05/01/2011 10:00,301.1
364634089180501,05/01/2011 10:01,301.1
364634089180501,05/01/2011 10:02,301.09
364634089180501,05/01/2011 10:03,301.09
364634089180501,05/01/2011 10:04,301.1
364634089180501,05/01/2011 10:05,301.09
364634089180501,05/01/2011 10:06,301.09
364634089180501,05/01/2011 10:07,301.1
364634089180501,05/01/2011 10:08,301.1
364634089180501,05/01/2011 10:09,301.1
364634089180501,05/01/2011 10:10,301.09
364634089180501,05/01/2011 10:11,301.09
364634089180501,05/01/2011 10:12,301.09
364634089180501,05/01/2011 10:13,301.09
364634089180501,05/01/2011 10:14,301.1
364634089180501,05/01/2011 10:15,301.1
364634089180501,05/01/2011 10:16,301.1
364634089180501,05/01/2011 10:17,301.1
364634089180501,05/01/2011 10:18,301.11
364634089180501,05/01/2011 10:19,301.1
364634089180501,05/01/2011 10:20,301.1
364634089180501,05/01/2011 10:21,301.1
364634089180501,05/01/2011 10:22,301.11
364634089180501,05/01/2011 10:23,301.11
364634089180501,05/01/2011 10:24,301.12
364634089180501,05/01/2011 10:25,301.12
364634089180501,05/01/2011 10:26,301.12
364634089180501,05/01/2011 10:27,301.12
364634089180501,05/01/2011 10:28,301.11
364634089180501,05/01/2011 10:29,301.12
364634089180501,05/01/2011 10:30,301.12
364634089180501,05/01/2011 10:31,301.12
364634089180501,05/01/2011 10:32,301.12
364634089180501,05/01/2011 10:33,301.11
364634089180501,05/01/2011 10:34,301.11
364634089180501,05/01/2011 10:35,301.12
364634089180501,05/01/2011 10:36,301.12
364634089180501,05/01/2011 10:37,301.12
364634089180501,05/01/2011 10:38,301.12
364634089180501,05/01/2011 10:39,301.12
364634089180501,05/01/2011 10:40,301.13
364634089180501,05/01/2011 10:41,301.13
364634089180501,05/01/2011 10:42,301.12
364634089180501,05/01/2011 10:43,301.12
364634089180501,05/01/2011 10:44,301.13
364634089180501,05/01/2011 10:45,301.13
364634089180501,05/01/2011 10:46,301.12
364634089180501,05/01/2011 10:47,301.12
364634089180501,05/01/2011 10:48,301.12
364634089180501,05/01/2011 10:49,301.12
364634089180501,05/01/2011 10:50,301.12
364634089180501,05/01/2011 10:51,301.12
364634089180501,05/01/2011 10:52,301.12
364634089180501,05/01/2011 10:53,301.12
364634089180501,05/01/2011 10:54,301.12
364634089180501,05/01/2011 10:55,301.12
364634089180501,05/01/2011 10:56,301.12
364634089180501,05/01/2011 10:57,301.12
364634089180501,05/01/2011 10:58,301.12
364634089180501,05/01/2011 10:59,301.11
364634089180501,05/01/2011 11:00,301.11
364634089180501,05/01/2011 11:01,301.12
364634089180501,05/01/2011 11:02,301.12
364634089180501,05/01/2011 11:03,301.12
364634089180501,05/01/2011 11:04,301.12
364634089180501,05/01/2011 11:05,301.12
364634089180501,05/01/2011 11:06,301.12
364634089180501,05/01/2011 11:07,301.12
364634089180501,05/01/2011 11:08,301.12
364634089180501,05/01/2011 11:09,301.12
364634089180501,05/01/2011 11:10,301.12
364634089180501,05/01/2011 11:11,301.12
364634089180501,05/01/2011 11:12,301.12
364634089180501,05/01/2011 11:13,301.12
364634089180501,05/01/2011 11:14,301.12
364634089180501,05/01/2011 11:15,301.11
364634089180501,05/01/2011 11:16,301.12
364634089180501,05/01/2011 11:17,301.12
364634089180501,05/01/2011 11:18,301.13
364634089180501,05/01/2011 11:19,301.13
364634089180501,05/01/2011 11:20,301.12
364634089180501,05/01/2011 11:21,301.13
364634089180501,05/01/2011 11:22,301.13
364634089180501,05/01/2011 11:23,301.13
364634089180501,05/01/2011 11:24,301.13
364634089180501,05/01/2011 11:25,301.13
364634089180501,05/01/2011 11:26,301.13
364634089180501,05/01/2011 11:27,301.12
364634089180501,05/01/2011 11:28,301.13
364634089180501,05/01/2011 11:29,301.13
364634089180501,05/01/2011 11:30,301.13
364634089180501,05/01/2011 11:31,301.13
364634089180501,05/01/2011 11:32,301.12
364634089180501,05/01/2011 11:33,301.13
364634089180501,05/01/2011 11:34,301.14
364634089180501,05/01/2011 11:35,301.13
364634089180501,05/01/2011 11:36,301.14
364634089180501,05/01/2011 11:37,301.13
364634089180501,05/01/2011 11:38,301.13
364634089180501,05/01/2011 11:39,301.13
364634089180501,05/01/2011 11:40,301.13
364634089180501,05/01/2011 11:41,301.14
364634089180501,05/01/2011 11:42,301.13
364634089180501,05/01/2011 11:43,301.13
364634089180501,05/01/2011 11:44,301.12
364634089180501,05/01/2011 11:45,301.13
364634089180501,05/01/2011 11:46,301.13
364634089180501,05/01/2011 11:47,301.13